Regional Weather Roundup
Issued by NWS Northern Indiana

Home | Current Version | Previous Version | Text Only | Print | Product List | Glossary Off
Versions: 1 2 3 4 5 6 7 8 9 10 11 12 13 14 15 16 17 18 19 20 21 22 23 24 25 26 27 28 29 30 31 32 33 34 35 36 37 38 39 40 41 42 43 44 45 46 47 48 49 50

000
ASUS43 KIWX 160800
RWRIWX

KIWX WEATHER ROUNDUP
NATIONAL WEATHER SERVICE NORTHERN INDIANA
400 AM EDT TUE SEP 16 2014

NOTE: "FAIR" INDICATES FEW OR NO CLOUDS BELOW 12,000 FEET WITH NO
SIGNIFICANT WEATHER AND/OR OBSTRUCTIONS TO VISIBILITY.

* THESE STATIONS ARE NOT UNDER NWS QUALITY CONTROL. THEY ALSO MAY NOT
  REPORT WEATHER SUCH AS PRECIPITATION OR FOG.

INZ001>027-160900-
NORTHERN INDIANA

CITY           SKY/WX    TMP DP  RH WIND       PRES   REMARKS
VALPARAISO     CLEAR     51  49  92 CALM      30.17S
SOUTH BEND     CLOUDY    53  50  89 NE5       30.17S
GOSHEN         MOCLDY    53  50  89 NW6       30.16R FOG
ANGOLA*        CLOUDY    52  37  58 N5        30.14S
FORT WAYNE     FOG       52  51  97 N7        30.14S VSB 1/4
PERU/GRISSOM   CLOUDY    52 N/A N/A NW3       30.14S FOG

$$
INZ028>050-160900-
CENTRAL INDIANA

CITY           SKY/WX    TMP DP  RH WIND       PRES   REMARKS
LAFAYETTE      CLOUDY    52  52 100 NW3       30.15S FOG
KOKOMO*        CLOUDY    52  50  93 N8        30.14S VSB 3/4
MUNCIE*        MOCLDY    54  51  90 N8        30.12S
INDIANAPOLIS   CLOUDY    56  53  90 N9        30.12R

$$
MIZ043>046-050>051-056>058-064>065-071>073-077>080-160900-
SOUTHWEST LOWER MICHIGAN

CITY           SKY/WX    TMP DP  RH WIND       PRES   REMARKS
BATTLE CREEK   CLOUDY    52  49  89 NW5       30.15S
BENTON HARBOR  MOCLDY    49  48  97 CALM      30.17R
COLDWATER*     CLOUDY    52  51  95 W3        30.15R
HILLSDALE*     CLOUDY    52  52 100 CALM      30.14R
HOLLAND        PTCLDY    43  41  93 CALM      30.17R FOG
GRAND RAPIDS   FOG       48  48 100 NW3       30.16R VSB 1/4
KALAMAZOO      PTCLDY    49  47  93 W3        30.16R
STURGIS*       CLOUDY    52  52 100 CALM      30.15S
THREE RIVERS*  CLOUDY    54  51  91 CALM      30.16S

$$
OHZ001>008-015>018-024>025-160900-
NORTHWEST OHIO

CITY           SKY/WX    TMP DP  RH WIND       PRES   REMARKS
DEFIANCE       CLOUDY    54  51  90 N5        30.14R
FINDLAY        CLOUDY    53  51  93 NW7       30.11S FOG
TOLEDO EXPRESS CLOUDY    52  51  97 N5        30.12S
TOLEDO METCALF CLOUDY    54  51  90 NW9       30.13R
LIMA           FOG       53  52  96 NW9       30.12R VSB 1/2

$$
&&


USA.gov is the U.S. government's official web portal to all federal, state and local government web resources and services.